Location: Berg
(47.2344°N, 9.5296°E)
Time: 08:55:52
(UTC+00:00)

Cosmos 2082 Rocket - Visible Passes

Search period start: 09 May 2021 00:00
Search period end: 19 May 2021 00:00
Orbit: 835 x 852 km, 71.0° (Epoch: 08 May)

Date Brightness Start Highest point End Pass type
(mag) Time Alt. Az. Time Alt. Az. Time Alt. Az.
09 May 3.3 20:23:40 10° NNW 20:28:43 33° NE 20:32:17 17° ESE visible
09 May 2.7 22:07:36 10° NW 22:12:59 47° WSW 22:14:08 41° SW visible
10 May 3.3 20:09:08 10° NNW 20:14:08 31° NE 20:18:07 15° ESE visible
10 May 2.7 21:53:02 10° NW 21:58:27 49° WSW 21:59:58 39° SSW visible
11 May 3.4 19:54:36 10° NNW 19:59:33 31° NE 20:03:59 12° ESE visible
11 May 2.6 21:38:28 10° NW 21:43:54 52° WSW 21:45:50 36° SSW visible
12 May 3.4 19:40:04 10° NNW 19:44:59 30° NE 19:49:51 10° ESE visible
12 May 2.6 21:23:53 10° NW 21:29:21 54° WSW 21:31:43 32° S visible
13 May 3.4 19:25:32 10° N 19:30:23 29° NE 19:35:13 10° ESE visible
13 May 2.6 21:09:19 10° NW 21:14:49 56° WSW 21:17:39 28° S visible
14 May 2.5 20:54:45 10° NNW 21:00:16 58° WSW 21:03:37 24° S visible
15 May 2.5 20:40:11 10° NNW 20:45:43 61° WSW 20:49:37 20° S visible
16 May 2.5 20:25:37 10° NNW 20:31:11 63° WSW 20:35:40 16° S visible
17 May 2.5 20:11:03 10° NNW 20:16:38 66° WSW 20:21:44 12° SSE visible
18 May 2.5 19:56:30 10° NNW 20:02:05 69° WSW 20:07:40 10° SSE visible
18 May 4.8 21:44:35 10° W 21:45:05 10° W 21:45:34 10° W visible
